Location: *
(43.4667°N, 11.6833°E)
Time: 07:51:31
(UTC+00:00)

Cosmos 724 - Pass Details

Date: 19 July 2019
Orbit: 853 x 941 km, 65.6° (Epoch: 21 August)

Event Time Altitude Azimuth Distance (km) Brightness Sun altitude
Rises 22:58:09 0° 323° (NW) 3,554 8.3 -25.6°
Reaches altitude 10° 23:00:44 10° 319° (NW) 2,595 7.4 -25.6°
Maximum altitude 23:06:34 54° 244° (WSW) 1,077 4.5 -25.7°
Enters shadow 23:06:51 53° 233° (SW) 1,081 4.5 -25.7°
